timestamp,surface_pressure_avg,surface_temp_avg,battery_voltage,lat,long
2019-10-03 00:00:00+00:00,285.0096,9.6,12.97,47.84626,-54.09684
2019-10-03 00:10:00+00:00,294.3396,9.6,12.89,47.84626,-54.09684
2019-10-03 00:20:00+00:00,307.678,9.6,12.97,47.84626,-54.09684
2019-10-03 00:30:00+00:00,317.3696,9.6,12.97,47.84626,-54.09684
2019-10-03 00:40:00+00:00,322.8547,9.6,12.97,47.84626,-54.09684
2019-10-03 00:50:00+00:00,327.0114,9.6,12.97,47.84626,-54.09684
2019-10-03 01:00:00+00:00,334.5296,9.61,12.89,47.84626,-54.09684
2019-10-03 01:10:00+00:00,343.2347,9.6,12.81,47.84626,-54.09684
2019-10-03 01:20:00+00:00,345.3047,9.6,12.97,47.84626,-54.09684
2019-10-03 01:30:00+00:00,347.2313,9.6,12.97,47.84626,-54.09684
2019-10-03 01:40:00+00:00,346.648,9.6,12.97,47.84626,-54.09684
2019-10-03 01:50:00+00:00,349.8596,9.6,12.97,47.84626,-54.09684
2019-10-03 02:00:00+00:00,353.1379,9.6,12.89,47.84626,-54.09684
2019-10-03 02:10:00+00:00,357.0114,9.6,12.81,47.84626,-54.09684
2019-10-03 02:20:00+00:00,358.4929,9.6,12.89,47.84626,-54.09684
2019-10-03 02:30:00+00:00,360.4095,9.6,12.97,47.84626,-54.09684
2019-10-03 02:40:00+00:00,361.7613,9.6,12.97,47.84626,-54.09684
2019-10-03 02:50:00+00:00,357.7845,9.6,12.97,47.84626,-54.09684
2019-10-03 03:00:00+00:00,358.4612,9.6,12.89,47.84626,-54.09684
2019-10-03 03:10:00+00:00,356.2913,9.6,12.81,47.84626,-54.09684
2019-10-03 03:20:00+00:00,353.9012,9.6,12.89,47.84626,-54.09684
2019-10-03 03:30:00+00:00,351.8611,9.6,12.89,47.84626,-54.09684
2019-10-03 03:40:00+00:00,351.6129,9.6,12.97,47.84626,-54.09684
2019-10-03 03:50:00+00:00,351.763,9.6,12.97,47.84626,-54.09684
2019-10-03 04:00:00+00:00,345.4481,9.6,12.89,47.84626,-54.09684
2019-10-03 04:10:00+00:00,342.8112,9.6,12.81,47.84626,-54.09684
2019-10-03 04:20:00+00:00,345.6281,9.6,12.89,47.84626,-54.09684
2019-10-03 04:30:00+00:00,349.0828,9.6,12.89,47.84626,-54.09684
2019-10-03 04:40:00+00:00,340.5363,9.6,12.97,47.84626,-54.09684
2019-10-03 04:50:00+00:00,329.7097,9.6,12.97,47.84626,-54.09684
2019-10-03 05:00:00+00:00,318.8846,9.6,12.81,47.84626,-54.09684
2019-10-03 05:10:00+00:00,311.1313,9.6,12.81,47.84626,-54.09684
2019-10-03 05:20:00+00:00,305.018,9.6,12.89,47.84626,-54.09684
2019-10-03 05:30:00+00:00,298.8414,9.6,12.89,47.84626,-54.09684
2019-10-03 05:40:00+00:00,287.5164,9.6,12.89,47.84626,-54.09684
2019-10-03 05:50:00+00:00,276.6263,9.6,12.89,47.84626,-54.09684
2019-10-03 06:00:00+00:00,267.7596,9.59,12.81,47.84626,-54.09684
2019-10-03 06:10:00+00:00,261.6298,9.59,12.81,47.84626,-54.09684
2019-10-03 06:20:00+00:00,252.5081,9.58,12.89,47.84626,-54.09684
2019-10-03 06:30:00+00:00,239.3514,9.5,12.89,47.84626,-54.09684
2019-10-03 06:40:00+00:00,233.3564,9.5,12.89,47.84626,-54.09684
2019-10-03 06:50:00+00:00,226.2764,9.53,12.89,47.84626,-54.09684
2019-10-03 07:00:00+00:00,213.8765,9.58,12.81,47.84626,-54.09684
2019-10-03 07:10:00+00:00,206.9415,9.59,12.73,47.84626,-54.09684
2019-10-03 07:20:00+00:00,203.7698,9.56,12.81,47.84626,-54.09684
2019-10-03 07:30:00+00:00,197.0864,9.5,12.89,47.84626,-54.09684
2019-10-03 07:40:00+00:00,195.6248,9.4,12.89,47.84626,-54.09684
2019-10-03 07:50:00+00:00,198.7882,9.36,12.89,47.84626,-54.09684
2019-10-03 08:00:00+00:00,196.5831,9.4,12.81,47.84626,-54.09684
2019-10-03 08:10:00+00:00,191.9931,9.4,12.73,47.84626,-54.09684
2019-10-03 08:20:00+00:00,194.6981,9.45,12.81,47.84626,-54.09684
2019-10-03 08:30:00+00:00,201.8465,9.48,12.81,47.84626,-54.09684
2019-10-03 08:40:00+00:00,201.0199,9.5,12.89,47.84626,-54.09684
2019-10-03 08:50:00+00:00,204.5048,9.54,12.89,47.84626,-54.09684
2019-10-03 09:00:00+00:00,217.2098,9.57,12.81,47.84626,-54.09684
2019-10-03 09:10:00+00:00,219.5365,9.58,12.73,47.84626,-54.09684
2019-10-03 09:20:00+00:00,217.0548,9.56,12.81,47.84626,-54.09684
2019-10-03 09:30:00+00:00,226.1381,9.5,12.81,47.84626,-54.09684
2019-10-03 09:40:00+00:00,237.9681,9.5,12.89,47.84626,-54.09684
2019-10-03 09:50:00+00:00,236.3148,9.5,12.89,47.84626,-54.09684
2019-10-03 10:00:00+00:00,234.9681,9.5,12.81,47.84626,-54.09684
2019-10-03 10:10:00+00:00,243.0831,9.5,13.05,47.84626,-54.09684
2019-10-03 10:20:00+00:00,249.6064,9.5,13.44,47.84626,-54.09684
2019-10-03 10:30:00+00:00,248.7231,9.54,13.84,47.84626,-54.09684
2019-10-03 10:40:00+00:00,253.1915,9.5,14.24,47.84626,-54.09684
2019-10-03 10:50:00+00:00,262.5281,9.5,15.27,47.84626,-54.09684
2019-10-03 11:00:00+00:00,267.0531,9.5,15.2,47.84626,-54.09684
2019-10-03 11:10:00+00:00,267.2364,9.5,15.51,47.84626,-54.09684
2019-10-03 11:20:00+00:00,272.6664,9.4,16.55,47.84626,-54.09684
2019-10-03 11:30:00+00:00,280.5814,9.4,16.55,47.84626,-54.09684
2019-10-03 11:40:00+00:00,282.1164,9.32,16.55,47.84626,-54.09684
2019-10-03 11:50:00+00:00,281.6097,9.3,16.47,47.84626,-54.09684
2019-10-03 12:00:00+00:00,290.0214,9.32,15.27,47.84626,-54.09684
2019-10-03 12:10:00+00:00,299.3797,9.3,15.11,47.84626,-54.09684
2019-10-03 12:20:00+00:00,304.8364,9.3,15.67,47.84626,-54.09684
2019-10-03 12:30:00+00:00,311.7679,9.3,14.64,47.84626,-54.09684
2019-10-03 12:40:00+00:00,323.7163,9.3,14.96,47.84626,-54.09684
2019-10-03 12:50:00+00:00,332.7313,9.3,14.64,47.84626,-54.09684
2019-10-03 13:00:00+00:00,340.4129,9.3,15.11,47.84626,-54.09684
2019-10-03 13:10:00+00:00,351.2012,9.3,14.88,47.84626,-54.09684
2019-10-03 13:20:00+00:00,357.648,9.32,15.35,47.84626,-54.09684
2019-10-03 13:30:00+00:00,361.1329,9.4,15.04,47.84626,-54.09684
2019-10-03 13:40:00+00:00,366.8779,9.4,14.88,47.84626,-54.09684
2019-10-03 13:50:00+00:00,369.6229,9.4,15.11,47.84626,-54.09684
2019-10-03 14:00:00+00:00,371.4697,9.4,14.96,47.84626,-54.09684
2019-10-03 14:10:00+00:00,375.9413,9.4,14.72,47.84626,-54.09684
2019-10-03 14:20:00+00:00,377.7246,9.4,14.64,47.84626,-54.09684
2019-10-03 14:30:00+00:00,380.9879,9.4,14.8,47.84626,-54.09684
2019-10-03 14:40:00+00:00,386.2646,9.4,14.48,47.84626,-54.09684
2019-10-03 14:50:00+00:00,386.9529,9.4,14.64,47.84626,-54.09684
2019-10-03 15:00:00+00:00,381.5113,9.4,14.4,47.84626,-54.09684
2019-10-03 15:10:00+00:00,381.713,9.46,14.4,47.84626,-54.09684
2019-10-03 15:20:00+00:00,385.1113,9.47,14.48,47.84626,-54.09684
2019-10-03 15:30:00+00:00,382.2163,9.49,14.72,47.84626,-54.09684
2019-10-03 15:40:00+00:00,378.5347,9.5,14.48,47.84626,-54.09684
2019-10-03 15:50:00+00:00,380.0462,9.5,14.96,47.84626,-54.09684
2019-10-03 16:00:00+00:00,379.343,9.5,14.56,47.84626,-54.09684
2019-10-03 16:10:00+00:00,372.6013,9.5,14.64,47.84626,-54.09684
2019-10-03 16:20:00+00:00,366.858,9.5,14.64,47.84626,-54.09684
2019-10-03 16:30:00+00:00,366.6345,9.52,14.88,47.84626,-54.09684
2019-10-03 16:40:00+00:00,366.168,9.55,14.48,47.84626,-54.09684
2019-10-03 16:50:00+00:00,361.0963,9.54,14.64,47.84626,-54.09684
2019-10-03 17:00:00+00:00,354.5264,9.58,14.4,47.84626,-54.09684
2019-10-03 17:10:00+00:00,349.8929,9.58,14.16,47.84626,-54.09684
2019-10-03 17:20:00+00:00,343.1546,9.58,14.64,47.84626,-54.09684
2019-10-03 17:30:00+00:00,329.1047,9.56,14.32,47.84626,-54.09684
2019-10-03 17:40:00+00:00,318.9579,9.51,14.24,47.84626,-54.09684
2019-10-03 17:50:00+00:00,312.9031,9.53,14.48,47.84626,-54.09684
2019-10-03 18:00:00+00:00,300.7547,9.55,14.56,47.84626,-54.09684
2019-10-03 18:10:00+00:00,286.3047,9.55,14.32,47.84626,-54.09684
2019-10-03 18:20:00+00:00,278.473,9.56,14.32,47.84626,-54.09684
2019-10-03 18:30:00+00:00,270.6731,9.5,14.48,47.84626,-54.09684
2019-10-03 18:40:00+00:00,256.0448,9.54,14.48,47.84626,-54.09684
2019-10-03 18:50:00+00:00,245.6981,9.58,14.4,47.84626,-54.09684
2019-10-03 19:00:00+00:00,239.1881,9.56,14.24,47.84626,-54.09684
2019-10-03 19:10:00+00:00,229.8047,9.59,14.16,47.84626,-54.09684
2019-10-03 19:20:00+00:00,219.4048,9.59,14.16,47.84626,-54.09684
2019-10-03 19:30:00+00:00,213.4364,9.6,14.16,47.84626,-54.09684
2019-10-03 19:40:00+00:00,208.8647,9.6,14.08,47.84626,-54.09684
2019-10-03 19:50:00+00:00,203.5265,9.6,14.08,47.84626,-54.09684
2019-10-03 20:00:00+00:00,198.5131,9.6,14.0,47.84626,-54.09684
2019-10-03 20:10:00+00:00,197.7515,9.6,13.84,47.84626,-54.09684
2019-10-03 20:20:00+00:00,200.5714,9.6,13.92,47.84626,-54.09684
2019-10-03 20:30:00+00:00,203.8347,9.6,13.84,47.84626,-54.09684
2019-10-03 20:40:00+00:00,206.3065,9.6,13.84,47.84626,-54.09684
2019-10-03 20:50:00+00:00,207.3215,9.6,13.84,47.84626,-54.09684
2019-10-03 21:00:00+00:00,207.7181,9.57,13.68,47.84626,-54.09684
2019-10-03 21:10:00+00:00,212.1647,9.52,13.53,47.84626,-54.09684
2019-10-03 21:20:00+00:00,215.6048,9.5,13.53,47.84626,-54.09684
2019-10-03 21:30:00+00:00,217.5548,9.5,13.44,47.84626,-54.09684
2019-10-03 21:40:00+00:00,221.9464,9.5,13.44,47.84626,-54.09684
2019-10-03 21:50:00+00:00,228.1165,9.5,13.37,47.84626,-54.09684
2019-10-03 22:00:00+00:00,229.4648,9.5,13.29,47.84626,-54.09684
2019-10-03 22:10:00+00:00,228.3681,9.5,13.13,47.84626,-54.09684
2019-10-03 22:20:00+00:00,231.0748,9.5,13.13,47.84626,-54.09684
2019-10-03 22:30:00+00:00,237.2697,9.5,13.13,47.84626,-54.09684
2019-10-03 22:40:00+00:00,239.3764,9.5,13.13,47.84626,-54.09684
2019-10-03 22:50:00+00:00,236.5698,9.5,13.05,47.84626,-54.09684
2019-10-03 23:00:00+00:00,238.6831,9.5,12.97,47.84626,-54.09684
2019-10-03 23:10:00+00:00,243.4914,9.5,12.89,47.84626,-54.09684
2019-10-03 23:20:00+00:00,243.0464,9.5,12.97,47.84626,-54.09684
2019-10-03 23:30:00+00:00,243.5097,9.5,12.97,47.84626,-54.09684
2019-10-03 23:40:00+00:00,248.9564,9.5,12.97,47.84626,-54.09684
2019-10-03 23:50:00+00:00,250.8531,9.5,12.97,47.84626,-54.09684
